User: anonymous   Login
Location: Unspecified
(0.0000°N, 0.0000°E)
Time: 14:44:42
(UTC+00:00)
Language:

AO-40 - Orbit

View from above orbital plane
View from above orbital plane
View from above satellite
View from above satellite

Ground track
Ground track

The orbit data is extracted from the following two-line orbital elements,

1 26609U 00072B   17084.27889507 -.00000273 +00000-0 +00000-0 0  9991
2 26609 006.2973 238.5783 7949139 096.2565 348.7661 01.25588159075161
Epoch (UTC): 25 March 2017 06:41:36
Eccentricity: 0.7949139
inclination: 6.2973°
perigee height: 1064 km
apogee height: 58756 km
right ascension of ascending node: 238.5783°
argument of perigee: 96.2565°
revolutions per day: 1.25588159
mean anomaly at epoch: 348.7661°
orbit number at epoch: 7516

The dashed part of the orbit path shows where the satellite is in the earth's shadow,  

DLR